Satellite: NOAA-11 Catalog number: 19531 Epoch time: 07137.29825549 Element set: 656 Inclination: 098.8105 deg RA of node: 226.8449 deg Eccentricity: 0.0012392 Arg of perigee: 116.8064 deg Mean anomaly: 243.4401 deg Mean motion: 14.14845979 rev/day Decay rate: 2.20e-06 rev/day^2 Epoch rev: 96178 Checksum: 324
Satellite: NOAA-12 Catalog number: 21263 Epoch time: 07137.34974418 Element set: 152 Inclination: 098.7508 deg RA of node: 134.6430 deg Eccentricity: 0.0012567 Arg of perigee: 192.6124 deg Mean anomaly: 167.4726 deg Mean motion: 14.25527277 rev/day Decay rate: -8.5e-07 rev/day^2 Epoch rev: 83185 Checksum: 312
Satellite: MET-3/5 Catalog number: 21655 Epoch time: 07137.70857865 Element set: 266 Inclination: 082.5537 deg RA of node: 024.4745 deg Eccentricity: 0.0012542 Arg of perigee: 289.2889 deg Mean anomaly: 070.6876 deg Mean motion: 13.17011407 rev/day Decay rate: 5.1e-07 rev/day^2 Epoch rev: 75739 Checksum: 328
Satellite: MET-2/21 Catalog number: 22782 Epoch time: 07137.34586513 Element set: 826 Inclination: 082.5481 deg RA of node: 066.3803 deg Eccentricity: 0.0021566 Arg of perigee: 326.6757 deg Mean anomaly: 033.3048 deg Mean motion: 13.83615623 rev/day Decay rate: -7.0e-07 rev/day^2 Epoch rev: 69225 Checksum: 307
Satellite: OKEAN-4 Catalog number: 23317 Epoch time: 07136.72756917 Element set: 262 Inclination: 082.5380 deg RA of node: 325.8893 deg Eccentricity: 0.0022473 Arg of perigee: 001.1227 deg Mean anomaly: 359.0002 deg Mean motion: 14.82500688 rev/day Decay rate: 1.91e-06 rev/day^2 Epoch rev: 67939 Checksum: 302
Satellite: NOAA-14 Catalog number: 23455 Epoch time: 07137.43401932 Element set: 636 Inclination: 098.9902 deg RA of node: 203.4515 deg Eccentricity: 0.0009573 Arg of perigee: 181.5865 deg Mean anomaly: 178.5275 deg Mean motion: 14.13719268 rev/day Decay rate: 2.35e-06 rev/day^2 Epoch rev: 63829 Checksum: 323
Satellite: SICH-1 Catalog number: 23657 Epoch time: 07137.08437538 Element set: 66 Inclination: 082.5253 deg RA of node: 106.4902 deg Eccentricity: 0.0023756 Arg of perigee: 350.0938 deg Mean anomaly: 009.9800 deg Mean motion: 14.81481348 rev/day Decay rate: 1.64e-06 rev/day^2 Epoch rev: 63142 Checksum: 295
Satellite: NOAA-15 Catalog number: 25338 Epoch time: 07137.33951419 Element set: 995 Inclination: 098.5297 deg RA of node: 134.8933 deg Eccentricity: 0.0011602 Arg of perigee: 117.1240 deg Mean anomaly: 243.1138 deg Mean motion: 14.24640112 rev/day Decay rate: -9.9e-07 rev/day^2 Epoch rev: 46829 Checksum: 306
Satellite: RESURS Catalog number: 25394 Epoch time: 07136.73284689 Element set: 641 Inclination: 098.4413 deg RA of node: 192.5033 deg Eccentricity: 0.0000875 Arg of perigee: 323.7899 deg Mean anomaly: 036.3221 deg Mean motion: 14.24135325 rev/day Decay rate: -1.0e-08 rev/day^2 Epoch rev: 45987 Checksum: 304
Satellite: FENGYUN1 Catalog number: 25730 Epoch time: 07137.71126621 Element set: 110 Inclination: 098.6875 deg RA of node: 122.7348 deg Eccentricity: 0.0019727 Arg of perigee: 211.7265 deg Mean anomaly: 148.2752 deg Mean motion: 14.07486171 rev/day Decay rate: 7.12e-06 rev/day^2 Epoch rev: 41318 Checksum: 288
Satellite: OKEAN-0 Catalog number: 25860 Epoch time: 07136.72221446 Element set: 53 Inclination: 097.7306 deg RA of node: 140.4430 deg Eccentricity: 0.0001891 Arg of perigee: 090.4651 deg Mean anomaly: 269.6781 deg Mean motion: 14.73451498 rev/day Decay rate: 6.2e-07 rev/day^2 Epoch rev: 42086 Checksum: 290
Satellite: NOAA-16 Catalog number: 26536 Epoch time: 07137.37471842 Element set: 408 Inclination: 099.1129 deg RA of node: 113.7831 deg Eccentricity: 0.0009648 Arg of perigee: 260.2117 deg Mean anomaly: 099.7968 deg Mean motion: 14.12425089 rev/day Decay rate: -1.71e-06 rev/day^2 Epoch rev: 34275 Checksum: 321
Satellite: NOAA-17 Catalog number: 27453 Epoch time: 07137.45921380 Element set: 420 Inclination: 098.5798 deg RA of node: 207.4949 deg Eccentricity: 0.0012042 Arg of perigee: 178.8333 deg Mean anomaly: 181.2883 deg Mean motion: 14.23878048 rev/day Decay rate: 2.6e-07 rev/day^2 Epoch rev: 25434 Checksum: 321
Satellite: NOAA-18 Catalog number: 28654 Epoch time: 07137.47930208 Element set: 955 Inclination: 098.8273 deg RA of node: 079.2793 deg Eccentricity: 0.0014417 Arg of perigee: 359.5612 deg Mean anomaly: 000.5552 deg Mean motion: 14.11062422 rev/day Decay rate: 4.5e-07 rev/day^2 Epoch rev: 10252 Checksum: 296
/EX SB KEPS @ AMSAT $ORB07137.M Orbital Elements 07137.MISC
HR AMSAT ORBITAL ELEMENTS FOR MANNED AND MISCELLANEOUS SATELLITES FROM WA5QGD FORT WORTH,TX May 17, 2007 Send SUBSCRIBE KEPS/UNSUBSCRIBE KEPS to majordomo@amsat.org only BID: ORB07137.M TO ALL RADIO AMATEURS BT
Satellite: HUBBLE Catalog number: 20580 Epoch time: 07137.73921972 Element set: 876 Inclination: 028.4678 deg RA of node: 028.6639 deg Eccentricity: 0.0003939 Arg of perigee: 137.8050 deg Mean anomaly: 222.2846 deg Mean motion: 15.00237294 rev/day Decay rate: 3.70e-06 rev/day^2 Epoch rev: 73538 Checksum: 315
Satellite: UARS Catalog number: 21701 Epoch time: 07135.21862104 Element set: 66 Inclination: 056.9735 deg RA of node: 096.9819 deg Eccentricity: 0.0098801 Arg of perigee: 126.5340 deg Mean anomaly: 234.4857 deg Mean motion: 15.47864080 rev/day Decay rate: 2.860e-05 rev/day^2 Epoch rev: 86064 Checksum: 311
Satellite: PO-34 Catalog number: 25520 Epoch time: 07136.72852714 Element set: 736 Inclination: 028.4603 deg RA of node: 319.3023 deg Eccentricity: 0.0005461 Arg of perigee: 269.4036 deg Mean anomaly: 090.5920 deg Mean motion: 15.16990986 rev/day Decay rate: 4.03e-06 rev/day^2 Epoch rev: 47274 Checksum: 300
Satellite: ISS Catalog number: 25544 Epoch time: 07137.67571192 Element set: 220 Inclination: 051.6345 deg RA of node: 261.5626 deg Eccentricity: 0.0009707 Arg of perigee: 192.9993 deg Mean anomaly: 303.8722 deg Mean motion: 15.77990540 rev/day Decay rate: 1.3944e-04 rev/day^2 Epoch rev: 48595 Checksum: 328
Satellite: OO-38 Catalog number: 26063 Epoch time: 07137.02018389 Element set: 911 Inclination: 100.2269 deg RA of node: 133.8859 deg Eccentricity: 0.0036447 Arg of perigee: 247.5381 deg Mean anomaly: 112.1945 deg Mean motion: 14.35804997 rev/day Decay rate: -6.0e-08 rev/day^2 Epoch rev: 38257 Checksum: 316
Satellite: UWE-1 Catalog number: 28892 Epoch time: 07137.29242883 Element set: 748 Inclination: 098.1343 deg RA of node: 034.5447 deg Eccentricity: 0.0016877 Arg of perigee: 205.8138 deg Mean anomaly: 154.2235 deg Mean motion: 14.59500875 rev/day Decay rate: 8.6e-07 rev/day^2 Epoch rev: 8270 Checksum: 324
Satellite: CO-58 Catalog number: 28895 Epoch time: 07136.72366296 Element set: 727 Inclination: 098.1391 deg RA of node: 034.1882 deg Eccentricity: 0.0017383 Arg of perigee: 207.2204 deg Mean anomaly: 152.8102 deg Mean motion: 14.59549202 rev/day Decay rate: 1.51e-06 rev/day^2 Epoch rev: 8250 Checksum: 307
Satellite: NCUBE2 Catalog number: 28897 Epoch time: 07136.66486820 Element set: 253 Inclination: 098.1345 deg RA of node: 034.0889 deg Eccentricity: 0.0016590 Arg of perigee: 210.0179 deg Mean anomaly: 150.0060 deg Mean motion: 14.59710703 rev/day Decay rate: 1.29e-06 rev/day^2 Epoch rev: 7477 Checksum: 301
Satellite: NMARS Catalog number: 29662 Epoch time: 07126.39603970 Element set: 263 Inclination: 051.6121 deg RA of node: 302.3682 deg Eccentricity: 0.0004459 Arg of perigee: 252.1654 deg Mean anomaly: 110.7411 deg Mean motion: 16.47981436 rev/day Decay rate: 7.031946e-02 rev/day^2 Epoch rev: 2165 Checksum: 289
Satellite: FCAL Catalog number: 29667 Epoch time: 07135.21942352 Element set: 138 Inclination: 051.6365 deg RA of node: 267.0415 deg Eccentricity: 0.0014366 Arg of perigee: 214.2784 deg Mean anomaly: 145.7319 deg Mean motion: 15.86998147 rev/day Decay rate: 1.5063e-04 rev/day^2 Epoch rev: 2276 Checksum: 312
Satellite: FALCON Catalog number: 30776 Epoch time: 07137.15969824 Element set: 53 Inclination: 035.4337 deg RA of node: 040.7510 deg Eccentricity: 0.0000864 Arg of perigee: 252.9825 deg Mean anomaly: 107.0796 deg Mean motion: 15.02701192 rev/day Decay rate: 2.21e-06 rev/day^2 Epoch rev: 1038 Checksum: 270
Satellite: MAST Catalog number: 31126 Epoch time: 07136.72594420 Element set: 33 Inclination: 098.0828 deg RA of node: 210.9416 deg Eccentricity: 0.0095700 Arg of perigee: 122.5713 deg Mean anomaly: 238.4731 deg Mean motion: 14.53339510 rev/day Decay rate: 3.95e-06 rev/day^2 Epoch rev: 428 Checksum: 271
Satellite: CAPE1 Catalog number: 31130 Epoch time: 07137.16964121 Element set: 21 Inclination: 098.0834 deg RA of node: 211.3006 deg Eccentricity: 0.0104016 Arg of perigee: 121.3175 deg Mean anomaly: 239.8254 deg Mean motion: 14.51849045 rev/day Decay rate: 1.6e-07 rev/day^2 Epoch rev: 411 Checksum: 234
/EX
participants (1)
-
Ray Hoad